Regional Weather Roundup
Issued by NWS

Home | Current Version | Previous Version | Text Only | Print | Product List | Glossary On
Versions: 1 2 3 4 5 6 7 8 9 10 11 12 13 14 15 16 17 18 19 20 21 22 23 24 25 26 27 28 29 30 31 32 33 34 35 36 37 38 39 40 41 42 43 44 45 46 47 48 49 50
000
ASUS43 KMKX 231311
RWRWI

WISCONSIN REGIONAL WEATHER ROUNDUP
NATIONAL WEATHER SERVICE MILWAUKEE/SULLIVAN WI
800 AM CDT MON OCT 23 2017

NOTE: "FAIR" INDICATES FEW OR NO CLOUDS BELOW 12,000 FEET WITH NO
SIGNIFICANT WEATHER AND/OR OBSTRUCTIONS TO VISIBILITY.

WIZ001-002-006>008-014>016-023>028-231400-
NORTHWEST WISCONSIN

CITY           SKY/WX    TMP DP  RH WIND       PRES   REMARKS
SUPERIOR ARPT  CLOUDY    53  36  53 SW6       29.69S
ASHLAND        MOCLDY    52  37  56 S7        29.72F
HAYWARD        CLOUDY    48  38  68 S8        29.75F
SIREN          CLOUDY    51  35  55 S8        29.74S
CUMBERLAND     CLOUDY    43  37  81 S5        29.76R
RICE LAKE      CLOUDY    45  40  82 SE5       29.80R
CHETEK         MOCLDY    44  41  89 SE6       29.78R
LADYSMITH      MOCLDY    45  40  82 SE3       29.80F
EAU CLAIRE     CLEAR     45  40  82 S5        29.78F
MENOMONIE      CLEAR     42  40  91 CALM      29.78F
NEW RICHMOND   PTCLDY    46  36  66 S6        29.76F
OSCEOLA        CLOUDY    49  37  61 S3        29.78F
$$

WIZ003>005-009-010-017-018-231400-
NORTH CENTRAL WISCONSIN

CITY           SKY/WX    TMP DP  RH WIND       PRES   REMARKS
MANITOWISH WTR CLOUDY    44  42  95 S9        29.79F
ARBOR VITAE    CLOUDY    45  40  84 SE6       29.81F
WOODRUFF       CLOUDY    45  40  84 SE6       29.81F
RHINELANDER    MOCLDY    43  40  89 CALM      29.83F
EAGLE RIVER    NOT AVBL
LAND O LAKES   CLOUDY    42  40  95 S3        29.84F
PHILLIPS       CLOUDY    43  39  88 SE5       29.79F
TOMAHAWK       CLOUDY    40  39  97 CALM      29.83F
MEDFORD        CLOUDY    40  37  89 SE6       29.81F
MERRILL        CLOUDY    39  39 100 SE3       29.83F
$$

WIZ029-030-035-036-043>047-231400-
CENTRAL WISCONSIN

CITY           SKY/WX    TMP DP  RH WIND       PRES   REMARKS
WAUSAU         CLOUDY    40  39  97 SE9       29.84F WCI  34
MOSINEE        MOCLDY    39  39 100 SE7       29.87F WCI  34
MARSHFIELD     CLOUDY    40  37  89 S6        29.82F
STEVENS POINT  CLOUDY    38  38 100 CALM      29.89S
WAUPACA        FOG       40  40  97 CALM      29.91S VSB<1/4
WAUTOMA        FOG      N/A N/A N/A CALM      29.91F VSB 1/4
WISC RAPIDS    CLOUDY    41  40  96 S7        29.89R
CAMP DOUGLAS   PTCLDY    43  41  93 SE8       29.87S
$$

WIZ011>013-019>022-031-037>040-048>050-231400-
NORTHEAST WISCONSIN

CITY           SKY/WX    TMP DP  RH WIND       PRES   REMARKS
ANTIGO         CLOUDY    37  37 100 S8        29.88S WCI  31
SHAWANO        FOG       41  40  96 CALM      29.90F VSB 1/4
OCONTO         CLOUDY    41  41 100 CALM      29.90F VSB<1/4
STURGEON BAY   FOG       42  41  96 CALM      29.91F VSB 1/4
GREEN BAY      FOG       43  43 100 CALM      29.91F VSB<1/4
MANITOWOC      FOG       43  43 100 CALM      29.91F VSB 1/4
APPLETON       FOG       41  41 100 CALM      29.92S VSB 1
CLINTONVILLE   NOT AVBL
OSHKOSH        CLOUDY    41  41 100 CALM      29.90S FOG
$$

WIZ032>034-041-042-053>061-231400-
SOUTHWEST WISCONSIN

CITY           SKY/WX    TMP DP  RH WIND       PRES   REMARKS
LA CROSSE      CLOUDY    49  44  83 S12       29.82F
SPARTA         PTCLDY    38  37  99 SE3       29.85F
VIROQUA        CLOUDY    44  42  95 SE8       29.86S
BOSCOBEL       FOG       41  40  96 CALM      29.90F VSB<1/4
PRAIRIE DU CHI PTCLDY    42  40  95 E7        29.89S
PLATTEVILLE    CLOUDY    42  42 100 CALM      29.90F
$$

WIZ056-057-062-063-064-067-068-231400-
SOUTH CENTRAL WISCONSIN

CITY           SKY/WX    TMP DP  RH WIND       PRES   REMARKS
REEDSBURG      CLOUDY    39  39 100 CALM      29.89F
BARABOO/DELLS  CLOUDY    40  40  98 CALM      29.89F
LONE ROCK      FOG       40  40 100 CALM      29.91F VSB<1/4
MINERAL POINT  CLOUDY    43  43 100 CALM      29.89F FOG
MADISON        CLOUDY    41  41 100 CALM      29.89F FOG
MIDDLETON      CLOUDY    42  42 100 CALM      29.90F
WATERTOWN      CLOUDY    42  42 100 CALM      29.89F FOG
MONROE         CLOUDY    45  43  93 NW7       29.89F
JANESVILLE     MOCLDY    45  45 100 NW8       29.89F
$$

WIZ051-052-058>065-066-070>072-231400-
SOUTHEAST WISCONSIN

CITY           SKY/WX    TMP DP  RH WIND       PRES   REMARKS
MILWAUKEE      LGT RAIN  51  47  86 NE5       29.90F
WAUKESHA       CLEAR     46  45  93 CALM      29.92F
MILWAUKEE/TIMM MOCLDY    48  45  87 N3        29.91F
RACINE         LGT RAIN  50  49  96 N8        29.90F
BURLINGTON     CLOUDY    47  47 100 NE3       29.87F
KENOSHA        CLOUDY    50  48  93 N5        29.88F
FOND DU LAC    CLOUDY    43  41  93 CALM      29.90F
SHEBOYGAN      LGT RAIN  45  45 100 CALM      29.90F FOG
WEST BEND      FOG       43  43 100 CALM      29.89F VSB 1/4
JUNEAU         FOG       42  42 100 CALM      29.91F VSB<1/4
$$

LSZ147-162-231400-
LAKE SUPERIOR

STATION/POSITION TIME  TEMP    WIND        PRES    WAVE
                       AIR SEA DIR/SP/G            HT/PER
                 (UTC) (F)     (DEG/KT/KT) (MB)    (FT/S)
W MID LAKE BUOY  1150   53 51              1007.1F   2/ 4
DEVILS ISLAND    1200   54     190/  9/ 13 1006.3F
PORT WING        1140          170/ 12/ 22 1005.1F
SAXON HARBOR     1230   55     190/ 11/ 16 1006.1F
$$

LMZ867-665-643>646-231400-
LAKE MICHIGAN

STATION/POSITION TIME  TEMP    WIND        PRES    WAVE
                       AIR SEA DIR/SP/G            HT/PER
                 (UTC) (F)     (DEG/KT/KT) (MB)    (FT/S)
S GREEN BAY BUOY 1300   49 58   CALM  /  2 1012.6
N MID LAKE BUOY  1250   52 57  240/  6/  6 1013.6F   1
NORTHPORT PIER   1240   45     240/  3/  3 1013.2F
KEWAUNEE LAKESHO 1248   43     300/  2/  5 1012.2F
SHEBOYGAN LAKESH 1300   48      80/  2/  2 1012.5F
PORT WASHINGTON  1240   49      CALM  /  2 1013.9F
MILWAUKEE LAKESH 1250   50      10/  6/  6   N/A
S MID LAKE BUOY  1150   54 60   10/ 16/ 17 1012.5F   3/ 4
KENOSHA   LAKESH 1300   51      10/ 15/ 17 1011.9
$$

TC  - TEMPERATURE IN CELSIUS
VSB - VISIBILITY IN STATUTE MILES
WCI - WIND CHILL INDEX
HX  - HEAT INDEX





USA.gov is the U.S. government's official web portal to all federal, state and local government web resources and services.